Regional Weather Roundup
Issued by NWS State College, PA

Home | Current Version | Previous Version | Graphics & Text | Print | Product List | Glossary Off
Versions: 1 2 3 4 5 6 7 8 9 10 11 12 13 14 15 16 17 18 19 20 21 22 23 24 25 26 27 28 29 30 31 32 33 34 35 36 37 38 39 40 41 42 43 44 45 46 47 48 49 50

745
ASUS41 KCTP 240110
RWRCTP

REGIONAL WEATHER ROUNDUP
NATIONAL WEATHER SERVICE STATE COLLEGE PA
900 PM EDT MON MAY 23 2016

Note: "fair" indicates few or no clouds below 12,000 feet with no
significant weather and/or obstructions to visibility.

* = STATION THAT DOES NOT REPORT PRECIPITATION /E.G. RAIN...SNOW...ETC/
    THUNDER OR FOG.

PAZ002>004-007>009-013>016-020>023-029>032-240200-
WESTERN PENNSYLVANIA

CITY           SKY/WX    TMP DP  RH WIND       PRES   REMARKS
ERIE           CLEAR     63  45  51 SW5       29.99S
MEADVILLE      CLEAR     61  44  53 NW3       30.00S
FRANKLIN*      CLEAR     64  41  42 N5        30.01R
NEW CASTLE     FAIR      67  46  47 NW3       30.00R
BEAVER COUNTY  CLEAR     64  50  59 CALM        N/A
BUTLER*        PTCLDY    66  46  48 NW5       30.00S
PITTSBURGH INT PTCLDY    67  50  54 CALM      29.98R
PITTSBURGH     CLEAR     63  51  65 SW8       29.97R
INDIANA*       CLEAR     59  55  88 CALM      30.00S
LATROBE        MOCLDY    59  54  82 CALM      29.98S
WASHINGTON CO* CLEAR     57  52  82 CALM      30.00R
$$

PAZ004>006-010>012-017>019-024>028-033>037-041-042-045-046-049>053-240200-
CENTRAL PENNSYLVANIA

CITY           SKY/WX    TMP DP  RH WIND       PRES   REMARKS
BRADFORD       CLEAR     63  39  41 N7        29.99R
DUBOIS         PTCLDY    67  42  40 N5        29.96R
CLEARFIELD     PTCLDY    65  52  62 VRB3      29.95R
JOHNSTOWN      MOCLDY    60  47  61 SW6       29.98S
ALTOONA        CLEAR     63  49  60 S9        29.96R
STATE COLLEGE  MOCLDY    64  52  63 SE7       29.94R
WILLIAMSPORT   CLEAR     64  47  53 SW5       29.89R
SELINSGROVE    CLEAR     58  56  93 CALM      29.90R
FT INDIANTOWN  PTCLDY    57  57 100 NW2       29.92R
CAPITAL CITY   CLEAR     61  55  81 CALM      29.92R
HARRISBURG     MOCLDY    62  54  74 CALM      29.91R
YORK           PTCLDY    59  54  83 W5        29.93R
$$

PAZ038>040-043-044-047-048-054-055-060>062-067>071-240200-
EASTERN PENNSYLVANIA

CITY           SKY/WX    TMP DP  RH WIND       PRES   REMARKS
SCRANTON       CLEAR     61  57  87 SE3       29.87S
MOUNT POCONO   MOCLDY    54  48  80 CALM      29.91R
ALLENTOWN      CLOUDY    62  56  80 W5        29.88R
QUAKERTOWN*    PTCLDY    63  57  82 CALM      29.91R
READING        PTCLDY    64  54  69 SW7       29.89R
LANCASTER      CLOUDY    62  55  77 W7        29.91S
COATESVILLE      N/A    N/A N/A N/A MISG        N/A
POTTSTOWN      MOCLDY    59  57  93 CALM      29.91R
BLUE BELL      CLOUDY    55  55 100 CALM      29.90R
DOYLESTOWN     MOCLDY    59  54  83 VRB3      29.89R
WILLOW GROVE   NOT AVBL
NORTH PHILA    CLOUDY    62  59  90 S3        29.91R
PHILADELPHIA   MOCLDY    61  57  87 CALM      29.91R
$$




USA.gov is the U.S. government's official web portal to all federal, state and local government web resources and services.